Location: Rio Tanui
(39.9167°N, 8.5167°E)
Time: 15:10:32
(UTC+00:00)

Meteor 2-2 Rocket - Pass Details

Date: 21 June 2024
Orbit: 851 x 928 km, 81.3° (Epoch: 18 July)

Event Time Altitude Azimuth Distance (km) Brightness Sun altitude
Rises 01:27:06 0° 4° (N) 3,430 8.5 -20.8°
Reaches altitude 10° 01:30:05 10° 19° (NNE) 2,487 7.8 -20.5°
Maximum altitude 01:34:27 23° 70° (ENE) 1,749 6.4 -20.1°
Drops below altitude 10° 01:38:48 10° 121° (ESE) 2,481 6.6 -19.7°
Sets 01:41:44 0° 136° (SE) 3,420 7.2 -19.4°
